Regional Weather Roundup
Issued by NWS Charleston, SC

Current Version | Previous Version | Graphics & Text | Print | Product List | Glossary On
Versions: 1 2 3 4 5 6 7 8 9 10 11 12 13 14 15 16 17 18 19 20 21 22 23 24 25 26 27 28 29 30 31 32 33 34 35 36 37 38 39 40 41 42 43 44 45 46 47 48 49 50
077
ASUS42 KCHS 250513
RWRCHS

REGIONAL WEATHER ROUNDUP
NATIONAL WEATHER SERVICE CHARLESTON SC
100 AM EDT WED MAY 25 2016

NOTE: "FAIR" INDICATES FEW OR NO CLOUDS BELOW 12,000 FEET WITH NO
SIGNIFICANT WEATHER AND/OR OBSTRUCTIONS TO VISIBILITY.

NOT ALL STATIONS ARE QUALITY CONTROLLED. USE DATA WITH CAUTION...
ESPECIALLY DEWPOINT OBSERVATIONS.

SCZ027-030-031-034>040-042>050-250600-
...SOUTHEAST SOUTH CAROLINA...

CITY           SKY/WX    TMP DP  RH WIND       PRES   REMARKS
N CHARLESTON   CLEAR     69  62  78 CALM      30.19S
WATERFRONT PRK   N/A     73  67  81 VRB2      30.17S
MOUNT PLEASANT FAIR      64  63  94 CALM      30.19S
JOHNS ISLAND   FAIR      66  64  94 CALM      30.19S
PINOPOLIS        N/A     72  63  73 VRB2      30.10S
MONCKS CORNER  FAIR      59  55  88 CALM      30.19S
SUMMERVILLE    FAIR      63  63 100 CALM      30.20S
BEAUFORT MCAS  PTCLDY    69  65  86 CALM      30.18F
BEAUFORT ARPT  FAIR      72  64  78 CALM      30.18S
HILTON HEAD IS PTCLDY    73  68  83 S6        30.19S
WALTERBORO     CLEAR     68  68 100 CALM      30.19F
ALLENDALE      MOCLDY    68  64  88 CALM      30.18R

...SOUTHERN MIDLANDS AND PEE DEE...

CITY           SKY/WX    TMP DP  RH WIND       PRES   REMARKS
GEORGETOWN     FAIR      59  55  88 CALM      30.20S
KINGSTREE      FAIR      63  59  88 CALM      30.19S
ORANGEBURG     CLEAR     66  63  90 S3        30.18S
BARNWELL       FAIR      72  70  94 CALM      30.19S
AIKEN          FAIR      64  61  88 S7        30.21S
MANNING        FAIR      68  63  83 S3        30.18F
COLUMBIA       CLEAR     66  59  78 CALM      30.16S
SUMTER         CLEAR     67  61  83 S1        30.16R
FLORENCE       CLEAR     66  59  78 S6        30.18S
MYRTLE BEACH   NOT AVBL
N MYRTLE BEACH CLEAR     68  61  78 SW5       30.18F

$$

GAZ063-065-086>088-099>101-113>116-118-119-134>141-150-250600-
...SOUTHEAST GEORGIA...

CITY           SKY/WX    TMP DP  RH WIND       PRES   REMARKS
SAVANNAH ARPT  PTCLDY    71  66  84 S5        30.19S
HUNTER AAF     CLOUDY    73  69  89 VRB2      30.16S
FORT STEWART   PTCLDY    66  63  92 CALM      30.17S
STATESBORO     MOCLDY    70  67  92 CALM      30.19S
SYLVANIA       CLEAR     71  67  88 CALM      30.19S
CLAXTON        FAIR      66  65  96 CALM      30.19R

...CSRA...CENTRAL AND FAR SOUTHEAST GEORGIA...

CITY           SKY/WX    TMP DP  RH WIND       PRES   REMARKS
THOMSON        CLEAR     64  62  94 CALM      30.21S
AUGUSTA-BUSH   PTCLDY    61  60  97 CALM      30.17R
AUGUSTA-DANIEL CLEAR     69  62  78 SE3       30.18R
SWAINSBORO     FAIR      70  61  73 S3        30.19S
VIDALIA        CLEAR     70  63  78 CALM      30.19S
EASTMAN        FAIR      63  63 100 S3        30.20S
HAZLEHURST     FAIR      72  61  67 S5        30.18R
ALMA           CLEAR     64  61  90 CALM      30.18S
WAYCROSS       PTCLDY    71  63  73 S6        30.19R
JESUP          FAIR      63  59  88 CALM      30.19S
BAXLEY         FAIR      68  63  83 CALM      30.19R
BRUNSWICK      CLEAR     72  68  88 CALM      30.19F
SAINT SIMONS   CLEAR     76  66  71 S8        30.18F

$$

SCZ027-028-034-036>038-045-046-048>050-GAZ119-141-250600-
...LAKE AND SUPPLEMENTAL COASTAL OBSERVATIONS...

STATION/POSITION TIME  TEMP    WIND        PRES    WAVE   SWELL
                       AIR SEA DIR/SP/G            HT/PER HT/PER/DIR
                 (UTC) (F)     (DEG/KT/KT) (MB)    (FT/S) (FT/S/D)
WINYAH BAY       NOT AVBL
LAKE MURRAY      0400   69        CALM     1021.0S
ACE BASIN NERRS  NOT AVBL
FORT PULASKI     0400   75 76  170/  4/  6 1022.4S
SAPELO ISLAND    0400   75     180/  9     1022.0S

$$

ANZ835-935-AMZ111-154-330-350-352-354-370-450-454-472-250600-
...C-MAN AND BUOY OBSERVATIONS...

STATION/POSITION TIME  TEMP    WIND        PRES    WAVE   SWELL
                       AIR SEA DIR/SP/G            HT/PER HT/PER/DIR
                 (UTC) (F)     (DEG/KT/KT) (MB)    (FT/S) (FT/S/D)
BUOY 41004       0450   76 76  190/  8/  8 1022.1F   2/ 9   2/ 9
BUOY 41008       0450   76 75  170/  8/ 10 1022.2S   2/ 9   2/120/ 9
FOLLY BEACH CMAN 0500   75     180/  8/  9 1022.4S
CAPERS NEARSHORE 0408   75 74  190/  8/ 12 1022.1R
FRIPP NEARSHORE  0408   75 75  180/  6/  8 1021.5S


STATION/POSITION TIME  TEMP    WIND        PRES    WAVE   SWELL
                       AIR SEA DIR/SP/G            HT/PER HT/PER/DIR
                 (UTC) (F)     (DEG/KT/KT) (MB)    (FT/S) (FT/S/D)
5E ST. MARYS GA  0421      78                N/A     2/ 9
FRYING PAN BUOY  0400   76 76  230/ 12/ 14 1022.3R
BUOY 41025       0450   73 79  240/ 14/ 16 1020.9F   4/ 9   2/ 90/ 9
CAPE LOOKOUT NC  0400   70     250/  7/  9 1021.7R
BUOY 41002       0450   73 78  360/  2/  4 1022.7F   5/ 9   5/ 50/ 9
BUOY 41010       0420   77 78   80/ 10/ 12 1022.4F
ST AUGUSTINE FL  0500   78 80  140/ 14/ 15 1023.1F


$$




USA.gov is the U.S. government's official web portal to all federal, state and local government web resources and services.